Regional Weather Roundup
Issued by NWS

Home | Current Version | Previous Version | Graphics & Text | Print | Product List | Glossary On
Versions: 1 2 3 4 5 6 7 8 9 10 11 12 13 14 15 16 17 18 19 20 21 22 23 24 25 26 27 28 29 30 31 32 33 34 35 36 37 38 39 40 41 42 43 44 45 46 47 48 49
000
ASUS45 KSLC 280110
RWRUT

UTAH REGIONAL WEATHER ROUNDUP
NATIONAL WEATHER SERVICE SALT LAKE CITY UT
700 PM MDT FRI MAR 27 2015

UTZ001>011-023>025-280200-

NORTHERN UTAH

CITY           SKY/WX    TMP DP  RH WIND       PRES   REMARKS
BRIGHAM CITY   CLEAR     67  29  23 S3        30.17F
HILL AFB       CLEAR     67  30  25 CALM      30.18F
LOGAN          CLEAR     67  35  30 N5        30.16F
OGDEN          CLEAR     66  30  26 SW3       30.16F
PROVO AIRPORT  CLEAR     64  37  36 VRB5      30.17F
SALT LAKE CITY CLEAR     69  33  26 N7        30.15F
VERNAL         PTCLDY    67  29  24 S6        30.15S
WENDOVER       CLEAR     66  27  22 W6        30.14F
HEBER CITY     CLEAR     64  28  25 SW12      30.19S
WEST JORDAN    CLEAR     66  37  34 NW7       30.17F

$$

UTZ012>022-026-027-280200-

SOUTHERN/CENTRAL UTAH

CITY           SKY/WX    TMP DP  RH WIND       PRES   REMARKS
BLANDING       CLEAR     68  23  18 NW10      30.25S
BRYCE CANYON   CLEAR     63  24  22 NW10      30.29S
CEDAR CITY     CLEAR     71  23  16 N5        30.19S
DELTA          CLEAR     71  25  18 CALM      30.17S
HANKSVILLE     CLEAR     73  21  14 SE8       30.13F
MILFORD        CLEAR     73  26  17 N6        30.16S
MOAB/CYNLANDS  CLEAR     71  21  15 CALM      30.11F
PRICE          CLEAR     70  19  14 W16       30.18R
ST GEORGE      CLEAR     81  25  12 W14       30.08S
KANAB          CLEAR     73  21  14 SW9       30.19S

$$

REGIONAL REPORTS     COLORADO/ARIZONA

CITY           SKY/WX    TMP DP  RH WIND       PRES   REMARKS
CRAIG, CO      MOCLDY    62  29  28 SW9       30.17S
GRAND JUNCTION CLEAR     68  25  19 NE5       30.13S
RIFLE          CLEAR     63  26  24 W10       30.16R
MONTROSE       CLEAR     67  21  17 W10       30.20R
CORTEZ         CLEAR     67  22  18 W10       30.20R
PAGE, AZ         N/A     76  22  13 NE3       30.11F
GRAND CANYON   CLEAR     68  16  13 N5        30.27R
KINGMAN        CLEAR     79  20  11 SW9       30.11F
FLAGSTAFF      CLEAR     66  10  11 SW9       30.30S

$$

REGIONAL REPORTS    NEVADA/IDAHO/WYOMING

CITY           SKY/WX    TMP DP  RH WIND       PRES   REMARKS
LAS VEGAS, NV  SUNNY     87  21   9 SE6       29.98F
ELY            SUNNY     71  20  14 SW8       30.19F
ELKO           SUNNY     73  27  18 W7        30.12F
POCATELLO, ID  PTCLDY    70  33  25 SW6       30.11F
BURLEY         CLEAR     72  35  25 W3        30.07F
EVANSTON, WY   PTCLDY    59  27  29 W14       30.26S
ROCK SPRINGS   PTCLDY    62  20  19 W15       30.19R
KEMMERER       CLEAR     57  28  33 W12       30.26S

$$


USA.gov is the U.S. government's official web portal to all federal, state and local government web resources and services.